| time (UTC) | temp C | wind direction | speed KPH | gust KPH | rain 1hr cm | rain 24hr cm | rain mn cm | humidity % | barometer mb |
| 20260507191439 | 13 | 0.0 | 0.0 | 0.00 | 0.00 | 0.00 | 95 | 1014.6 | |
| 20260507185847 | 14 | 0.0 | 0.0 | 0.00 | 0.00 | 0.00 | 90 | 1014.5 | |
| 20260507185842 | 14 | 0.0 | 0.0 | 0.00 | 0.00 | 0.00 | 90 | 1014.5 | |
| 20260507184246 | 15 | 0.0 | 0.0 | 0.00 | 0.00 | 0.00 | 84 | 1014.1 | |
| 20260507182653 | 15 | 0.0 | 0.0 | 0.00 | 0.00 | 0.00 | 85 | 1013.5 | |
| 20260507182649 | 15 | 0.0 | 0.0 | 0.00 | 0.00 | 0.00 | 85 | 1013.5 | |
| 20260507181051 | 15 | 0.0 | 0.0 | 0.00 | 0.00 | 0.00 | 82 | 1013.0 | |
| 20260507175459 | 16 | 0.0 | 0.0 | 0.00 | 0.00 | 0.00 | 81 | 1012.8 | |
| 20260507175455 | 16 | 0.0 | 0.0 | 0.00 | 0.00 | 0.00 | 81 | 1012.8 | |
| 20260507173857 | 16 | 0.0 | 0.0 | 0.00 | 0.00 | 0.00 | 82 | 1012.3 | |
| 20260507172300 | 16 | 0.0 | 0.0 | 0.00 | 0.00 | 0.00 | 81 | 1012.0 | |
| 20260507170704 | 17 | 0.0 | 0.0 | 0.00 | 0.00 | 0.00 | 81 | 1011.7 | |
| 20260507165113 | 17 | 0.0 | 0.0 | 0.00 | 0.00 | 0.00 | 80 | 1011.5 | |
| 20260507165107 | 17 | 0.0 | 0.0 | 0.00 | 0.00 | 0.00 | 80 | 1011.5 | |
| 20260507163510 | 17 | 0.0 | 0.0 | 0.00 | 0.00 | 0.00 | 79 | 1011.3 | |
| 20260507161913 | 18 | 0.0 | 0.0 | 0.00 | 0.00 | 0.00 | 80 | 1011.1 | |
| 20260507160321 | 18 | 0.0 | 0.0 | 0.00 | 0.00 | 0.00 | 82 | 1011.1 | |
| 20260507160317 | 18 | 0.0 | 0.0 | 0.00 | 0.00 | 0.00 | 82 | 1011.1 | |
| 20260507154719 | 18 | 0.0 | 0.0 | 0.00 | 0.00 | 0.00 | 83 | 1011.1 | |
| 20260507153122 | 18 | 0.0 | 0.0 | 0.00 | 0.00 | 0.00 | 81 | 1011.2 | |
| 20260507151525 | 18 | 0.0 | 0.0 | 0.00 | 0.00 | 0.00 | 78 | 1011.2 | |
| 20260507145929 | 18 | 0.0 | 0.0 | 0.00 | 0.00 | 0.00 | 86 | 1011.1 | |
| 20260507144332 | 18 | 0.0 | 0.0 | 0.00 | 0.00 | 0.00 | 87 | 1011.2 | |
| 20260507142734 | 18 | 0.0 | 0.0 | 0.00 | 0.00 | 0.00 | 83 | 1011.3 | |
| 20260507141144 | 18 | 0.0 | 0.0 | 0.00 | 0.00 | 0.00 | 83 | 1011.3 | |
| 20260507141137 | 18 | 0.0 | 0.0 | 0.00 | 0.00 | 0.00 | 83 | 1011.3 | |
| 20260507135540 | 18 | 0.0 | 0.0 | 0.00 | 0.00 | 0.00 | 83 | 1011.2 | |
| 20260507133943 | 20 | 0.0 | 0.0 | 0.00 | 0.00 | 0.00 | 67 | 1011.2 | |
| 20260507132346 | 21 | 0.0 | 0.0 | 0.00 | 0.00 | 0.00 | 60 | 1010.9 | |
| 20260507130749 | 21 | 0.0 | 0.0 | 0.00 | 0.00 | 0.00 | 61 | 1010.8 | |
| 20260507125152 | 22 | 0.0 | 0.0 | 0.00 | 0.00 | 0.00 | 60 | 1010.9 | |
| 20260507123555 | 21 | 0.0 | 0.0 | 0.00 | 0.00 | 0.00 | 62 | 1010.9 | |
| 20260507121959 | 21 | 0.0 | 0.0 | 0.00 | 0.00 | 0.00 | 61 | 1011.0 | |
| 20260507120401 | 22 | 0.0 | 0.0 | 0.00 | 0.00 | 0.00 | 59 | 1010.9 | |
| 20260507114805 | 22 | 0.0 | 0.0 | 0.00 | 0.00 | 0.00 | 61 | 1010.9 | |
| 20260507113207 | 22 | 0.0 | 0.0 | 0.00 | 0.00 | 0.00 | 62 | 1011.0 | |
| 20260507111610 | 21 | 0.0 | 0.0 | 0.00 | 0.00 | 0.00 | 62 | 1011.1 | |
| 20260507110019 | 21 | 0.0 | 0.0 | 0.00 | 0.00 | 0.00 | 65 | 1011.2 | |
| 20260507110014 | 21 | 0.0 | 0.0 | 0.00 | 0.00 | 0.00 | 65 | 1011.2 | |
| 20260507104417 | 21 | 0.0 | 0.0 | 0.00 | 0.00 | 0.00 | 69 | 1011.1 | |
| 20260507102819 | 21 | 0.0 | 0.0 | 0.00 | 0.00 | 0.00 | 67 | 1011.1 | |
| 20260507101222 | 21 | 0.0 | 0.0 | 0.00 | 0.00 | 0.00 | 67 | 1010.9 | |
| 20260507095625 | 21 | 0.0 | 0.0 | 0.00 | 0.00 | 0.00 | 68 | 1010.8 | |
| 20260507094029 | 21 | 0.0 | 0.0 | 0.00 | 0.00 | 0.00 | 69 | 1010.7 | |
| 20260507092818 | 20 | 0.0 | 0.0 | 0.00 | 0.00 | 0.00 | 71 | 1010.8 | |
| 20260507092431 | 20 | 0.0 | 0.0 | 0.00 | 0.00 | 0.00 | 71 | 1010.8 | |
| 20260507090839 | 19 | 0.0 | 0.0 | 0.00 | 0.00 | 0.00 | 72 | 1010.7 | |
| 20260507090834 | 19 | 0.0 | 0.0 | 0.00 | 0.00 | 0.00 | 72 | 1010.7 | |
| 20260507085237 | 20 | 0.0 | 0.0 | 0.00 | 0.00 | 0.00 | 73 | 1010.4 | |
| 20260507083647 | 20 | 0.0 | 0.0 | 0.00 | 0.00 | 0.00 | 72 | 1010.1 | |
| 20260507083642 | 20 | 0.0 | 0.0 | 0.00 | 0.00 | 0.00 | 72 | 1010.1 | |
| 20260507082043 | 19 | 0.0 | 0.0 | 0.00 | 0.00 | 0.00 | 73 | 1010.0 | |
| 20260507080446 | 19 | 0.0 | 0.0 | 0.00 | 0.00 | 0.00 | 74 | 1010.1 | |
| 20260507074849 | 18 | 0.0 | 0.0 | 0.00 | 0.00 | 0.00 | 74 | 1009.9 | |
| 20260507073252 | 18 | 0.0 | 0.0 | 0.00 | 0.00 | 0.00 | 78 | 1009.8 | |
| 20260507071655 | 17 | 0.0 | 0.0 | 0.00 | 0.00 | 0.00 | 78 | 1009.7 | |
| 20260507070104 | 17 | 0.0 | 0.0 | 0.00 | 0.00 | 0.00 | 81 | 1009.8 | |
| 20260507070058 | 17 | 0.0 | 0.0 | 0.00 | 0.00 | 0.00 | 81 | 1009.8 | |
| 20260507064501 | 17 | 0.0 | 0.0 | 0.00 | 0.00 | 0.00 | 82 | 1009.9 | |
| 20260507062904 | 16 | 0.0 | 0.0 | 0.00 | 0.00 | 0.00 | 83 | 1009.9 | |
| 20260507061307 | 16 | 0.0 | 0.0 | 0.00 | 0.00 | 0.00 | 83 | 1009.7 | |
| 20260507055710 | 16 | 0.0 | 0.0 | 0.00 | 0.00 | 0.00 | 86 | 1009.5 | |
| 20260507054117 | 16 | 0.0 | 0.0 | 0.00 | 0.00 | 0.00 | 86 | 1009.2 | |
| 20260507054113 | 16 | 0.0 | 0.0 | 0.00 | 0.00 | 0.00 | 86 | 1009.2 | |
| 20260507052516 | 16 | 0.0 | 0.0 | 0.00 | 0.00 | 0.00 | 85 | 1009.1 | |
| 20260507050919 | 16 | 0.0 | 0.0 | 0.00 | 0.00 | 0.00 | 86 | 1008.9 | |
| 20260507045322 | 16 | 0.0 | 0.0 | 0.00 | 0.00 | 0.00 | 86 | 1008.8 | |
| 20260507043731 | 16 | 0.0 | 0.0 | 0.00 | 0.00 | 0.00 | 87 | 1008.5 | |
| 20260507043725 | 16 | 0.0 | 0.0 | 0.00 | 0.00 | 0.00 | 87 | 1008.5 | |
| 20260507042129 | 16 | 0.0 | 0.0 | 0.00 | 0.00 | 0.00 | 89 | 1008.6 | |
| 20260507040531 | 16 | 0.0 | 0.0 | 0.00 | 0.00 | 0.00 | 90 | 1008.3 | |
| 20260507034938 | 15 | 0.0 | 0.0 | 0.00 | 0.00 | 0.00 | 91 | 1008.3 | |
| 20260507034933 | 15 | 0.0 | 0.0 | 0.00 | 0.00 | 0.00 | 91 | 1008.3 | |
| 20260507033337 | 15 | 0.0 | 0.0 | 0.00 | 0.00 | 0.00 | 90 | 1008.2 | |
| 20260507031740 | 15 | 0.0 | 0.0 | 0.00 | 0.00 | 0.00 | 91 | 1007.9 | |
| 20260507030142 | 15 | 0.0 | 0.0 | 0.00 | 0.00 | 0.00 | 90 | 1007.9 | |
| 20260507024551 | 15 | 0.0 | 0.0 | 0.00 | 0.00 | 0.00 | 88 | 1007.9 | |
| 20260507024545 | 15 | 0.0 | 0.0 | 0.00 | 0.00 | 0.00 | 88 | 1007.9 | |
| 20260507022948 | 15 | 0.0 | 0.0 | 0.00 | 0.00 | 0.00 | 89 | 1007.8 | |
| 20260507021357 | 15 | 0.0 | 0.0 | 0.00 | 0.00 | 0.00 | 88 | 1007.6 | |
| 20260507021352 | 15 | 0.0 | 0.0 | 0.00 | 0.00 | 0.00 | 88 | 1007.6 | |
| 20260507015754 | 16 | 0.0 | 0.0 | 0.00 | 0.00 | 0.00 | 85 | 1007.4 | |
| 20260507014157 | 16 | 0.0 | 0.0 | 0.00 | 0.00 | 0.00 | 86 | 1007.5 | |
| 20260507012610 | 16 | 0.0 | 0.0 | 0.00 | 0.00 | 0.00 | 84 | 1007.3 | |
| 20260507012600 | 16 | 0.0 | 0.0 | 0.00 | 0.00 | 0.00 | 84 | 1007.3 | |
| 20260507011003 | 16 | 0.0 | 0.0 | 0.00 | 0.00 | 0.00 | 85 | 1007.2 | |
| 20260507005406 | 16 | 0.0 | 0.0 | 0.00 | 0.00 | 0.00 | 85 | 1007.3 | |
| 20260507003810 | 16 | 0.0 | 0.0 | 0.00 | 0.00 | 0.00 | 85 | 1007.2 | |
| 20260507002213 | 16 | 0.0 | 0.0 | 0.00 | 0.00 | 0.00 | 88 | 1007.2 | |
| 20260507000615 | 16 | 0.0 | 0.0 | 0.00 | 0.00 | 0.00 | 90 | 1007.4 | |
| 20260506235023 | 16 | 0.0 | 0.0 | 0.00 | 0.00 | 0.00 | 90 | 1007.4 | |
| 20260506235018 | 16 | 0.0 | 0.0 | 0.00 | 0.00 | 0.00 | 90 | 1007.4 | |
| 20260506233426 | 15 | 0.0 | 0.0 | 0.00 | 0.00 | 0.00 | 90 | 1007.5 | |
| 20260506233421 | 15 | 0.0 | 0.0 | 0.00 | 0.00 | 0.00 | 90 | 1007.5 | |
| 20260506231824 | 15 | 0.0 | 0.0 | 0.00 | 0.00 | 0.00 | 92 | 1007.6 | |
| 20260506230235 | 15 | 0.0 | 0.0 | 0.00 | 0.00 | 0.00 | 93 | 1007.7 | |
| 20260506230228 | 15 | 0.0 | 0.0 | 0.00 | 0.00 | 0.00 | 93 | 1007.7 | |
| 20260506224635 | 14 | 0.0 | 0.0 | 0.00 | 0.00 | 0.00 | 95 | 1007.9 | |
| 20260506223034 | 13 | 0.0 | 0.0 | 0.00 | 0.00 | 0.00 | 96 | 1007.8 | |
| 20260506221437 | 13 | 0.0 | 0.0 | 0.00 | 0.00 | 0.00 | 97 | 1007.6 | |
| 20260506215844 | 13 | 0.0 | 0.0 | 0.00 | 0.00 | 0.00 | 96 | 1007.7 | |
| 20260506215840 | 13 | 0.0 | 0.0 | 0.00 | 0.00 | 0.00 | 96 | 1007.7 | |
| 20260506214249 | 13 | 0.0 | 0.0 | 0.00 | 0.00 | 0.00 | 96 | 1007.8 | |
| 20260506214243 | 13 | 0.0 | 0.0 | 0.00 | 0.00 | 0.00 | 96 | 1007.8 | |
| 20260506212650 | 13 | 0.0 | 0.0 | 0.00 | 0.00 | 0.00 | 96 | 1007.8 | |
| 20260506212646 | 13 | 0.0 | 0.0 | 0.00 | 0.00 | 0.00 | 96 | 1007.8 | |
| 20260506211049 | 13 | 0.0 | 0.0 | 0.00 | 0.00 | 0.00 | 95 | 1007.8 | |
| 20260506205458 | 13 | 0.0 | 0.0 | 0.00 | 0.00 | 0.00 | 95 | 1007.6 | |
| 20260506205452 | 13 | 0.0 | 0.0 | 0.00 | 0.00 | 0.00 | 95 | 1007.6 | |
| 20260506203901 | 13 | 0.0 | 0.0 | 0.00 | 0.00 | 0.00 | 96 | 1007.5 | |
| 20260506203855 | 13 | 0.0 | 0.0 | 0.00 | 0.00 | 0.00 | 96 | 1007.5 | |
| 20260506202306 | 13 | 0.0 | 0.0 | 0.00 | 0.00 | 0.00 | 95 | 1007.5 | |
| 20260506202258 | 13 | 0.0 | 0.0 | 0.00 | 0.00 | 0.00 | 95 | 1007.5 | |
| 20260506200718 | 13 | 0.0 | 0.0 | 0.00 | 0.00 | 0.00 | 94 | 1007.4 | |
| 20260506200707 | 13 | 0.0 | 0.0 | 0.00 | 0.00 | 0.00 | 94 | 1007.4 | |
| 20260506200702 | 13 | 0.0 | 0.0 | 0.00 | 0.00 | 0.00 | 94 | 1007.4 | |
| 20260506195104 | 13 | 0.0 | 0.0 | 0.00 | 0.00 | 0.00 | 93 | 1007.3 | |
| 20260506193507 | 14 | 0.0 | 0.0 | 0.00 | 0.00 | 0.00 | 92 | 1007.2 |